RYR47BK LBWN-LBSF

Flight info

Callsign RYR47BK
Flight time 0h 43m
Altitude 36000
Route DICXA T343 UMPIT
Aircraft B738/M-SDE2E3FGHIRWXY/LB1

Departure

Time 2026-05-08 13:35
Airport Varna Airport (LBWN)

Arrival

Time 2026-05-08 14:18
Airport Sofia Airport (LBSF)
Time Latitude Longitude Altitude Speed Heading
2026-05-08 13:19 43.23494 27.82659 219 ft 0 kts 271°
2026-05-08 13:29 43.23494 27.82658 219 ft 0 kts 271°
2026-05-08 13:29 43.23494 27.82657 219 ft 0 kts 271°
2026-05-08 13:29 43.23494 27.82653 219 ft 1 kts 271°
2026-05-08 13:29 43.23494 27.82647 219 ft 1 kts 271°
2026-05-08 13:30 43.23494 27.82638 219 ft 1 kts 271°
2026-05-08 13:30 43.23494 27.82628 219 ft 1 kts 271°
2026-05-08 13:30 43.23494 27.82613 219 ft 2 kts 258°
2026-05-08 13:30 43.23481 27.82571 220 ft 9 kts 248°
2026-05-08 13:31 43.23460 27.82463 218 ft 13 kts 274°
2026-05-08 13:31 43.23466 27.82340 224 ft 13 kts 274°
2026-05-08 13:31 43.23473 27.82212 217 ft 14 kts 274°
2026-05-08 13:31 43.23481 27.82086 217 ft 13 kts 276°
2026-05-08 13:32 43.23491 27.81964 216 ft 13 kts 277°
2026-05-08 13:32 43.23502 27.81843 222 ft 14 kts 277°
2026-05-08 13:32 43.23517 27.81680 221 ft 21 kts 277°
2026-05-08 13:32 43.23539 27.81444 218 ft 29 kts 277°
2026-05-08 13:33 43.23566 27.81155 213 ft 21 kts 278°
2026-05-08 13:33 43.23554 27.80960 216 ft 21 kts 230°
2026-05-08 13:33 43.23422 27.80961 212 ft 21 kts 149°
2026-05-08 13:33 43.23328 27.81098 215 ft 20 kts 109°
2026-05-08 13:34 43.23319 27.81163 212 ft 0 kts 97°
2026-05-08 13:35 43.23282 27.81572 222 ft 92 kts 97°
2026-05-08 13:35 43.23165 27.82832 317 ft 167 kts 98°
2026-05-08 13:35 43.22984 27.84554 1039 ft 187 kts 99°
2026-05-08 13:35 43.22845 27.86260 2229 ft 174 kts 97°
2026-05-08 13:36 43.22729 27.88037 2589 ft 192 kts 97°
2026-05-08 13:36 43.22506 27.89782 2713 ft 188 kts 121°
2026-05-08 13:36 43.21473 27.90861 2948 ft 202 kts 171°
2026-05-08 13:36 43.20008 27.90638 3247 ft 230 kts 205°
2026-05-08 13:37 43.18651 27.89270 3596 ft 257 kts 232°
2026-05-08 13:37 43.18014 27.87048 4662 ft 258 kts 265°
2026-05-08 13:37 43.18050 27.84587 5675 ft 261 kts 272°
2026-05-08 13:37 43.18182 27.82103 6654 ft 264 kts 273°
2026-05-08 13:38 43.18322 27.79580 7562 ft 268 kts 273°
2026-05-08 13:38 43.18454 27.77012 8595 ft 271 kts 273°
2026-05-08 13:38 43.18563 27.74407 9514 ft 278 kts 272°
2026-05-08 13:38 43.18661 27.71755 10430 ft 282 kts 272°
2026-05-08 13:39 43.18754 27.68967 10814 ft 306 kts 272°
2026-05-08 13:39 43.18846 27.65975 11064 ft 330 kts 272°
2026-05-08 13:39 43.18938 27.62785 11656 ft 340 kts 272°
2026-05-08 13:39 43.19029 27.59512 12357 ft 348 kts 271°
2026-05-08 13:40 43.19117 27.56166 13073 ft 355 kts 271°
2026-05-08 13:40 43.19206 27.52736 13704 ft 364 kts 271°
2026-05-08 13:40 43.19294 27.49265 14513 ft 364 kts 271°
2026-05-08 13:40 43.19380 27.45787 15252 ft 368 kts 271°
2026-05-08 13:41 43.19466 27.42260 15972 ft 372 kts 270°
2026-05-08 13:41 43.19552 27.38704 16652 ft 376 kts 271°
2026-05-08 13:41 43.19636 27.35144 17331 ft 380 kts 271°
2026-05-08 13:41 43.19721 27.31514 18052 ft 384 kts 270°
2026-05-08 13:42 43.19806 27.27842 18682 ft 387 kts 270°
2026-05-08 13:42 43.19890 27.24134 19281 ft 391 kts 270°
2026-05-08 13:42 43.19974 27.20402 19879 ft 394 kts 270°
2026-05-08 13:42 43.20058 27.16631 20473 ft 397 kts 270°
2026-05-08 13:43 43.20142 27.12838 21052 ft 400 kts 270°
2026-05-08 13:43 43.20224 27.09015 21603 ft 404 kts 270°
2026-05-08 13:43 43.20237 27.05209 22144 ft 406 kts 265°
2026-05-08 13:43 43.19857 27.01367 22764 ft 407 kts 259°
2026-05-08 13:44 43.19340 26.97574 23531 ft 404 kts 258°
2026-05-08 13:44 43.18804 26.93791 23912 ft 403 kts 258°
2026-05-08 13:44 43.18270 26.90039 23992 ft 400 kts 258°
2026-05-08 13:44 43.17741 26.86289 24005 ft 401 kts 258°
2026-05-08 13:45 43.17218 26.82542 24010 ft 401 kts 258°
2026-05-08 13:45 43.16699 26.78794 24012 ft 400 kts 258°
2026-05-08 13:45 43.16183 26.75046 24012 ft 400 kts 258°
2026-05-08 13:45 43.15675 26.71352 24010 ft 400 kts 258°
2026-05-08 13:46 43.15161 26.67614 24013 ft 400 kts 258°
2026-05-08 13:46 43.14645 26.63873 24017 ft 399 kts 258°
2026-05-08 13:46 43.14129 26.60137 24019 ft 399 kts 258°
2026-05-08 13:46 43.13612 26.56402 24010 ft 400 kts 258°
2026-05-08 13:47 43.13094 26.52669 24011 ft 399 kts 258°
2026-05-08 13:47 43.12573 26.48930 24010 ft 399 kts 258°
2026-05-08 13:47 43.12055 26.45212 24012 ft 398 kts 258°
2026-05-08 13:47 43.11541 26.41541 24017 ft 398 kts 258°
2026-05-08 13:48 43.11020 26.37825 24018 ft 397 kts 258°
2026-05-08 13:48 43.10499 26.34118 24012 ft 397 kts 258°
2026-05-08 13:48 43.09976 26.30409 24013 ft 396 kts 258°
2026-05-08 13:48 43.09454 26.26710 24018 ft 396 kts 258°
2026-05-08 13:49 43.08930 26.23007 24015 ft 396 kts 258°
2026-05-08 13:49 43.08406 26.19317 24015 ft 396 kts 258°
2026-05-08 13:49 43.07880 26.15624 24014 ft 395 kts 258°
2026-05-08 13:49 43.07360 26.11981 24014 ft 395 kts 258°
2026-05-08 13:50 43.06834 26.08300 24023 ft 395 kts 258°
2026-05-08 13:50 43.06306 26.04619 24017 ft 394 kts 258°
2026-05-08 13:50 43.05778 26.00942 24018 ft 394 kts 257°
2026-05-08 13:50 43.05249 25.97268 24023 ft 393 kts 257°
2026-05-08 13:51 43.04725 25.93637 24018 ft 393 kts 257°
2026-05-08 13:51 43.04605 25.92807 24013 ft 393 kts 257°
2026-05-08 13:51 43.04307 25.90747 24025 ft 392 kts 257°
2026-05-08 13:52 43.03777 25.87095 24022 ft 392 kts 257°
2026-05-08 13:52 43.03253 25.83491 24018 ft 392 kts 257°
2026-05-08 13:52 43.02722 25.79841 24019 ft 392 kts 257°
2026-05-08 13:52 43.02189 25.76191 24018 ft 391 kts 257°
2026-05-08 13:53 43.01655 25.72547 24026 ft 391 kts 257°
2026-05-08 13:53 43.01120 25.68901 24029 ft 392 kts 257°
2026-05-08 13:53 43.00584 25.65250 24026 ft 393 kts 257°
2026-05-08 13:53 43.00043 25.61585 24017 ft 394 kts 257°
2026-05-08 13:54 42.99500 25.57910 24012 ft 394 kts 257°
2026-05-08 13:54 42.98958 25.54248 24011 ft 394 kts 257°
2026-05-08 13:54 42.98422 25.50637 24013 ft 393 kts 257°
2026-05-08 13:54 42.97879 25.46984 24010 ft 392 kts 257°
2026-05-08 13:55 42.97335 25.43335 24013 ft 392 kts 257°
2026-05-08 13:55 42.96791 25.39695 24012 ft 391 kts 257°
2026-05-08 13:55 42.95702 25.32433 24016 ft 390 kts 257°
2026-05-08 13:56 42.95156 25.28807 24023 ft 391 kts 257°
2026-05-08 13:56 42.94793 25.26396 24023 ft 392 kts 257°
2026-05-08 13:56 42.94063 25.21567 24010 ft 392 kts 257°
2026-05-08 13:56 42.93511 25.17925 24019 ft 393 kts 257°
2026-05-08 13:57 42.92956 25.14273 24014 ft 393 kts 257°
2026-05-08 13:57 42.92401 25.10622 24013 ft 393 kts 257°
2026-05-08 13:57 42.91845 25.06973 24011 ft 393 kts 257°
2026-05-08 13:57 42.91287 25.03327 24017 ft 393 kts 257°
2026-05-08 13:58 42.90917 25.00910 24016 ft 393 kts 257°
2026-05-08 13:58 42.90358 24.97267 24018 ft 393 kts 257°
2026-05-08 13:58 42.89798 24.93622 24018 ft 393 kts 256°
2026-05-08 13:58 42.89054 24.88797 24024 ft 392 kts 256°
2026-05-08 13:59 42.88491 24.85154 24024 ft 393 kts 256°
2026-05-08 13:59 42.88109 24.82689 24021 ft 393 kts 256°
2026-05-08 13:59 42.87544 24.79045 24026 ft 393 kts 256°
2026-05-08 13:59 42.86985 24.75448 24028 ft 394 kts 256°
2026-05-08 14:00 42.86416 24.71794 24017 ft 394 kts 256°
2026-05-08 14:00 42.85846 24.68140 24026 ft 394 kts 256°
2026-05-08 14:00 42.85273 24.64483 24031 ft 395 kts 256°
2026-05-08 14:00 42.84700 24.60823 24034 ft 395 kts 256°
2026-05-08 14:01 42.84136 24.57156 24036 ft 396 kts 257°
2026-05-08 14:01 42.83576 24.53488 24029 ft 396 kts 257°
2026-05-08 14:01 42.83015 24.49813 24027 ft 396 kts 257°
2026-05-08 14:01 42.82459 24.46179 24023 ft 396 kts 257°
2026-05-08 14:02 42.81705 24.41271 24035 ft 396 kts 257°
2026-05-08 14:02 42.81330 24.38838 24033 ft 397 kts 257°
2026-05-08 14:02 42.80760 24.35151 24021 ft 398 kts 257°
2026-05-08 14:02 42.80189 24.31465 24037 ft 398 kts 257°
2026-05-08 14:03 42.79618 24.27783 24024 ft 398 kts 257°
2026-05-08 14:03 42.79046 24.24106 24034 ft 397 kts 257°
2026-05-08 14:03 42.78481 24.20475 24025 ft 385 kts 257°
2026-05-08 14:03 42.77927 24.16937 24029 ft 380 kts 256°
2026-05-08 14:04 42.77323 24.13499 24036 ft 378 kts 255°
2026-05-08 14:04 42.76665 24.10024 24032 ft 380 kts 255°
2026-05-08 14:04 42.76003 24.06536 23737 ft 380 kts 255°
2026-05-08 14:04 42.75356 24.03077 23354 ft 376 kts 255°
2026-05-08 14:05 42.74723 23.99641 22904 ft 372 kts 257°
2026-05-08 14:05 42.74504 23.96149 22419 ft 371 kts 273°
2026-05-08 14:05 42.74754 23.92667 21932 ft 370 kts 274°
2026-05-08 14:05 42.75013 23.89203 21357 ft 365 kts 274°
2026-05-08 14:06 42.75253 23.85831 20620 ft 362 kts 274°
2026-05-08 14:06 42.75485 23.82420 19853 ft 362 kts 273°
2026-05-08 14:06 42.75706 23.79022 19175 ft 359 kts 272°
2026-05-08 14:06 42.75922 23.75656 18534 ft 355 kts 272°
2026-05-08 14:07 42.76133 23.72320 17827 ft 353 kts 272°
2026-05-08 14:07 42.76340 23.69005 17073 ft 350 kts 272°
2026-05-08 14:07 42.76545 23.65710 16334 ft 349 kts 272°
2026-05-08 14:07 42.76747 23.62454 15830 ft 341 kts 272°
2026-05-08 14:08 42.76942 23.59314 15377 ft 332 kts 272°
2026-05-08 14:08 42.77132 23.56224 14987 ft 324 kts 272°
2026-05-08 14:08 42.77318 23.53191 14609 ft 320 kts 272°
2026-05-08 14:08 42.77500 23.50186 14217 ft 318 kts 272°
2026-05-08 14:09 42.77684 23.47139 13848 ft 331 kts 272°
2026-05-08 14:09 42.77875 23.43940 13381 ft 342 kts 272°
2026-05-08 14:09 42.78069 23.40715 12940 ft 341 kts 273°
2026-05-08 14:09 42.78262 23.37490 12405 ft 342 kts 273°
2026-05-08 14:10 42.78454 23.34262 11903 ft 342 kts 273°
2026-05-08 14:10 42.78643 23.31084 11398 ft 333 kts 273°
2026-05-08 14:10 42.78825 23.28016 10921 ft 325 kts 273°
2026-05-08 14:10 42.79003 23.24977 10452 ft 319 kts 273°
2026-05-08 14:11 42.79176 23.22003 9967 ft 314 kts 273°
2026-05-08 14:11 42.79343 23.19126 9917 ft 294 kts 273°
2026-05-08 14:11 42.79498 23.16417 9722 ft 281 kts 273°
2026-05-08 14:11 42.79648 23.13804 9427 ft 272 kts 273°
2026-05-08 14:12 42.79776 23.11275 9126 ft 264 kts 268°
2026-05-08 14:12 42.79348 23.08937 8853 ft 250 kts 238°
2026-05-08 14:12 42.78238 23.07252 8575 ft 239 kts 212°
2026-05-08 14:12 42.76764 23.06295 8211 ft 233 kts 191°
2026-05-08 14:13 42.75173 23.05971 7841 ft 231 kts 184°
2026-05-08 14:13 42.73585 23.06075 7406 ft 229 kts 160°
2026-05-08 14:13 42.72282 23.07223 7046 ft 225 kts 130°
2026-05-08 14:13 42.71578 23.09098 6619 ft 226 kts 103°
2026-05-08 14:14 42.71373 23.11219 6227 ft 227 kts 95°
2026-05-08 14:14 42.71270 23.13339 5920 ft 222 kts 95°
2026-05-08 14:14 42.71173 23.15432 5549 ft 222 kts 94°
2026-05-08 14:14 42.71096 23.17572 5029 ft 227 kts 95°
2026-05-08 14:15 42.70986 23.19658 4730 ft 223 kts 96°
2026-05-08 14:15 42.70858 23.21743 4435 ft 220 kts 96°
2026-05-08 14:15 42.70730 23.23808 4147 ft 219 kts 96°
2026-05-08 14:15 42.70603 23.25870 3857 ft 216 kts 96°
2026-05-08 14:16 42.70484 23.27849 3584 ft 205 kts 96°
2026-05-08 14:16 42.70369 23.29723 3308 ft 192 kts 96°
2026-05-08 14:16 42.70263 23.31474 3051 ft 179 kts 95°
2026-05-08 14:16 42.70166 23.33078 2859 ft 161 kts 96°
2026-05-08 14:17 42.70076 23.34567 2643 ft 157 kts 96°
2026-05-08 14:17 42.69989 23.36016 2420 ft 150 kts 96°
2026-05-08 14:17 42.69908 23.37353 2231 ft 144 kts 96°
2026-05-08 14:17 42.69830 23.38660 2048 ft 143 kts 97°
2026-05-08 14:18 42.69762 23.39963 1804 ft 135 kts 98°
2026-05-08 14:18 42.69682 23.41178 1746 ft 115 kts 95°
2026-05-08 14:18 42.69630 23.42043 1749 ft 65 kts 94°
2026-05-08 14:18 42.69577 23.42531 1747 ft 41 kts 116°
2026-05-08 14:19 42.69483 23.42732 1748 ft 8 kts 138°
2026-05-08 14:19 42.69463 23.42749 1744 ft 1 kts 156°
2026-05-08 14:19 42.69456 23.42751 1747 ft 1 kts 169°
2026-05-08 14:19 42.69441 23.42751 1749 ft 6 kts 186°
2026-05-08 14:20 42.69410 23.42731 1746 ft 1 kts 231°
2026-05-08 14:20 42.69404 23.42670 1744 ft 11 kts 270°
2026-05-08 14:20 42.69408 23.42549 1742 ft 15 kts 275°
2026-05-08 14:20 42.69418 23.42396 1750 ft 16 kts 275°
2026-05-08 14:21 42.69428 23.42246 1750 ft 16 kts 275°
2026-05-08 14:21 42.69436 23.42102 1741 ft 15 kts 275°
2026-05-08 14:21 42.69445 23.41965 1746 ft 14 kts 275°
2026-05-08 14:21 42.69452 23.41843 1743 ft 14 kts 275°
2026-05-08 14:22 42.69459 23.41717 1749 ft 13 kts 275°
2026-05-08 14:22 42.69467 23.41596 1749 ft 13 kts 275°
2026-05-08 14:22 42.69474 23.41479 1749 ft 12 kts 275°
2026-05-08 14:22 42.69481 23.41362 1742 ft 12 kts 275°
2026-05-08 14:23 42.69480 23.41252 1742 ft 12 kts 248°
2026-05-08 14:23 42.69412 23.41202 1749 ft 11 kts 192°
2026-05-08 14:23 42.69334 23.41179 1749 ft 11 kts 192°
2026-05-08 14:23 42.69256 23.41156 1749 ft 12 kts 192°
2026-05-08 14:24 42.69174 23.41132 1747 ft 12 kts 193°
2026-05-08 14:24 42.69137 23.41112 1747 ft 1 kts 230°
2026-05-08 14:24 42.69135 23.41106 1748 ft 4 kts 242°
2026-05-08 14:24 42.69114 23.41032 1742 ft 11 kts 252°
2026-05-08 14:25 42.69084 23.40916 1746 ft 8 kts 239°
2026-05-08 14:25 42.69069 23.40904 1744 ft 2 kts 196°
2026-05-08 14:25 42.69056 23.40900 1746 ft 0 kts 184°
2026-05-08 14:26 42.69014 23.40914 1744 ft 10 kts 163°
2026-05-08 14:26 42.68994 23.40922 1747 ft 0 kts 163°